Wind_Speed
16 15 15 16 19 23 18 23 20 22 14 21 24 23 26 27 36 41 40 39 40 39 45 48 48 49 44 38 38 37 37 39
26 22 18 19 21 24 25 22 21 20 25 23 25 27 28 39 38 35 34 37 34 48 41 44 47 40 36 37 39 40 40 40
27 26 21 23 25 25 27 23 23 25 27 28 29 29 32 31 29 34 40 44 50 50 43 43 42 43 39 37 39 42 42 42
23 27 25 25 23 22 19 17 17 21 26 27 32 34 33 34 31 35 42 48 44 46 43 42 45 45 44 42 43 44 47 46
26 23 15 11 10 12 15 15 17 22 25 31 32 32 34 37 43 47 45 45 51 49 48 49 49 47 47 47 48 47 47 49
19 16 13 12 14 17 21 25 26 28 28 32 34 37 41 43 44 46 51 52 49 48 47 47 47 47 47 47 48 51 51 51
14 17 17 16 17 20 20 20 24 28 33 38 41 41 42 45 48 53 52 49 48 49 51 45 47 46 48 50 49 50 49 47
17 18 19 21 20 21 23 25 31 33 35 37 41 44 47 49 53 47 49 50 51 47 43 44 45 46 47 49 49 47 48 47
6 8 12 11 11 24 36 37 38 41 41 45 46 45 50 50 56 46 52 51 47 46 46 47 48 49 51 49 45 43 44 40
13 12 11 11 17 26 34 39 42 46 45 49 47 46 51 51 59 55 54 49 47 46 47 48 49 48 46 43 41 39 39 41
11 19 22 26 28 33 36 43 45 45 47 46 45 47 51 57 57 50 49 47 48 46 45 44 43 42 40 36 34 34 35 33
17 19 25 30 30 33 40 40 43 47 47 44 43 43 47 45 37 46 53 47 46 45 46 48 46 43 39 35 34 33 32 33
24 27 26 30 40 41 44 48 47 45 43 42 42 45 44 31 47 56 57 45 41 42 49 48 43 39 37 36 34 33 33 32
26 27 36 43 40 44 48 47 43 41 42 43 41 44 39 50 54 57 47 40 39 49 50 43 46 42 36 34 34 34 34 35
29 36 40 41 45 48 45 39 39 39 39 43 43 44 46 47 52 52 43 34 44 45 43 43 46 41 35 33 35 36 37 40
39 41 40 45 46 43 38 41 39 40 40 42 44 44 43 45 52 56 38 38 40 40 38 41 48 41 35 37 40 42 44 45
39 36 44 45 40 38 37 45 45 45 45 47 40 42 42 49 53 42 27 30 36 38 37 46 45 40 40 42 46 46 47 47
39 42 43 36 35 37 44 44 46 49 51 42 37 38 44 48 57 27 34 34 35 33 43 42 40 41 45 46 47 48 44 43
39 34 28 30 35 43 46 47 50 50 43 42 41 42 43 44 33 31 31 32 32 38 39 38 40 40 40 43 44 43 42 38
Wind_Direction
210 199 195 209 230 244 261 275 292 301 287 293 301 302 302 298 302 301 300 297 297 301 304 304 302 300 297 296 291 294 297 298
200 200 218 214 230 248 266 279 298 297 298 306 309 306 295 305 297 295 298 303 294 304 305 306 307 307 298 301 299 296 295 293
205 210 218 234 246 261 281 294 294 298 305 310 312 301 293 290 283 292 299 304 303 305 306 306 303 302 303 300 294 293 293 293
215 230 246 249 260 266 279 289 298 305 302 302 298 287 288 292 291 291 294 299 305 308 307 304 302 304 304 302 299 297 297 297
240 256 281 260 257 266 279 298 308 301 292 291 287 290 289 291 295 297 303 305 306 305 307 307 307 305 302 303 302 300 298 296
268 276 270 265 277 287 301 304 299 300 293 290 290 295 299 304 307 305 308 312 311 310 310 307 302 301 300 299 299 299 299 299
273 269 268 277 287 296 302 304 316 312 312 312 312 313 312 310 310 309 308 307 308 304 305 303 301 302 302 302 303 304 304 301
319 319 326 324 314 311 313 321 326 319 320 322 315 312 314 311 313 309 307 306 305 305 304 305 306 308 308 308 307 305 302 298
304 300 286 329 309 311 324 324 318 318 313 316 315 309 308 304 307 296 304 305 306 308 309 311 313 310 307 305 302 298 295 290
305 300 277 285 300 305 312 317 314 316 312 310 306 305 299 300 297 301 304 304 307 308 309 308 307 307 306 303 298 293 290 287
278 285 285 295 295 304 309 311 309 304 305 305 305 301 295 301 301 305 307 308 306 307 308 307 309 310 308 304 299 296 294 291
275 284 293 293 290 298 307 306 306 307 306 305 305 301 299 298 310 318 314 308 310 305 313 318 320 320 316 311 307 302 297 296
275 286 291 289 289 295 313 314 311 310 311 316 320 320 314 301 316 319 314 309 313 322 326 324 322 318 311 309 310 314 315 313
285 292 305 304 302 305 313 314 316 320 322 324 323 323 314 308 316 313 303 311 325 327 325 322 327 321 314 312 312 313 313 311
297 303 308 305 309 314 319 324 324 322 324 324 317 312 307 303 309 314 296 304 325 323 322 322 327 319 316 323 320 315 311 306
307 306 306 312 317 321 325 325 323 326 323 316 309 313 309 304 307 314 298 316 322 321 317 317 323 320 323 322 318 314 311 308
312 307 313 316 319 322 317 319 327 323 318 312 303 299 303 306 310 296 319 325 324 317 311 315 324 322 321 317 312 314 312 309
309 311 314 317 316 312 313 317 317 317 313 319 310 296 294 310 313 316 339 325 318 309 316 322 323 321 318 314 316 315 313 310
310 316 311 308 306 310 315 313 315 313 324 327 321 316 308 307 310 311 335 322 314 324 322 323 322 317 313 315 318 316 317 314
Height
3175 3174 3172 3171 3172 3170 3168 3169 3171 3170 3170 3169 3167 3165 3164 3160 3159 3154 3151 3147 3145 3143 3139 3134 3130 3127 3125 3121 3116 3113 3109 3106
3169 3169 3169 3169 3170 3168 3168 3166 3165 3165 3166 3165 3164 3161 3157 3153 3150 3148 3146 3143 3138 3134 3129 3124 3119 3117 3116 3112 3106 3103 3100 3097
3167 3168 3169 3168 3168 3166 3164 3165 3166 3164 3161 3159 3158 3157 3154 3152 3150 3144 3138 3133 3127 3124 3119 3116 3112 3108 3105 3102 3098 3093 3091 3089
3167 3168 3168 3168 3168 3168 3167 3167 3165 3163 3161 3158 3156 3152 3149 3145 3141 3137 3132 3128 3123 3117 3111 3106 3101 3096 3093 3090 3087 3083 3078 3077
3166 3167 3166 3165 3164 3163 3164 3164 3163 3159 3155 3152 3148 3145 3141 3137 3133 3127 3123 3119 3114 3107 3101 3096 3091 3085 3082 3077 3073 3070 3066 3063
3163 3165 3164 3164 3163 3161 3158 3156 3154 3152 3147 3143 3139 3136 3133 3128 3123 3119 3112 3105 3099 3095 3089 3085 3080 3076 3071 3066 3062 3058 3054 3049
3160 3159 3160 3161 3160 3157 3154 3151 3147 3143 3139 3134 3130 3126 3123 3119 3114 3108 3102 3096 3091 3086 3081 3074 3069 3063 3058 3053 3047 3043 3039 3035
3157 3154 3153 3154 3152 3149 3147 3146 3145 3141 3135 3129 3124 3118 3113 3107 3102 3097 3090 3086 3082 3075 3068 3063 3058 3052 3046 3041 3035 3029 3024 3021
3159 3157 3153 3151 3148 3144 3143 3141 3138 3134 3129 3124 3118 3113 3106 3099 3093 3087 3080 3075 3069 3063 3057 3051 3045 3039 3034 3030 3024 3019 3013 3011
3154 3150 3145 3145 3144 3142 3139 3136 3131 3125 3120 3115 3109 3103 3096 3090 3084 3077 3072 3066 3059 3053 3047 3042 3035 3029 3023 3017 3013 3008 3003 2999
3150 3148 3146 3144 3141 3139 3135 3131 3125 3119 3113 3106 3100 3096 3085 3079 3074 3070 3063 3057 3050 3044 3037 3032 3026 3019 3013 3006 3001 2997 2993 2990
3149 3146 3143 3139 3137 3133 3128 3122 3116 3109 3104 3097 3091 3085 3077 3070 3066 3060 3054 3048 3042 3035 3028 3021 3014 3007 3001 2996 2992 2988 2985 2981
3147 3144 3141 3135 3130 3125 3118 3112 3105 3099 3092 3086 3080 3072 3065 3060 3054 3048 3042 3038 3030 3023 3018 3013 3007 3000 2994 2989 2984 2980 2976 2973
3141 3138 3133 3127 3121 3116 3110 3103 3095 3089 3081 3075 3070 3064 3057 3050 3044 3037 3030 3027 3021 3016 3009 3004 2999 2992 2986 2982 2978 2974 2970 2966
3134 3129 3122 3117 3111 3105 3099 3093 3086 3080 3074 3068 3063 3057 3049 3040 3035 3029 3022 3016 3013 3008 3001 2995 2991 2985 2980 2976 2971 2967 2962 2957
3125 3120 3114 3108 3101 3095 3090 3085 3079 3074 3068 3061 3054 3047 3040 3034 3028 3021 3013 3007 3005 2999 2993 2988 2983 2977 2973 2968 2963 2957 2951 2945
3117 3112 3106 3099 3092 3087 3082 3076 3071 3066 3060 3053 3044 3038 3033 3026 3019 3011 3006 3002 2996 2992 2987 2982 2976 2971 2965 2959 2953 2948 2941 2933
3109 3104 3097 3091 3085 3079 3074 3068 3063 3058 3050 3041 3035 3030 3024 3018 3011 3004 3000 2995 2990 2986 2981 2976 2971 2964 2958 2950 2943 2937 2930 2922
3102 3095 3089 3085 3079 3074 3068 3062 3056 3049 3040 3034 3028 3021 3015 3009 3004 2998 2993 2989 2984 2979 2975 2969 2964 2958 2951 2944 2937 2928 2920 2913